Location: Wanzleben
(52.0609°N, 11.4408°E)
Time: 07:07:32
(UTC+00:00)

ATLAS 2AS CENTAUR R/B - Pass Details

Date: 18 September 2020
Orbit: 939 x 1273 km, 63.7° (Epoch: 19 October)

Event Time Altitude Azimuth Distance (km) Brightness Sun altitude
Exits shadow 22:59:05 14° 268° (W) 2,974 5.0 -36.5°
Maximum altitude 23:05:43 45° 336° (NNW) 1,655 3.9 -36.5°
Drops below altitude 10° 23:13:03 10° 48° (NE) 3,161 5.6 -36.5°
Sets 23:15:55 0° 55° (NE) 4,084 6.2 -36.5°
